QPF
0.01 0.03 0.01 0.00 0.00 0.00 0.00 0.00 0.00 0.00 0.00 0.00 0.00 0.00 0.00 0.00 0.00 0.00 0.00 0.00 0.00 0.00 0.00 0.00 0.00 0.00 0.00 0.00 0.00 0.00 0.00 0.00
0.01 0.00 0.01 0.02 0.01 0.01 0.00 0.00 0.00 0.00 0.00 0.00 0.00 0.00 0.00 0.00 0.00 0.00 0.00 0.00 0.00 0.00 0.00 0.00 0.00 0.00 0.00 0.00 0.00 0.00 0.00 0.00
0.01 0.01 0.01 0.01 0.00 0.00 0.00 0.00 0.00 0.00 0.00 0.00 0.00 0.00 0.00 0.00 0.00 0.00 0.00 0.00 0.00 0.00 0.00 0.00 0.00 0.00 0.00 0.00 0.00 0.00 0.00 0.00
0.00 0.00 0.00 0.00 0.00 0.00 0.00 0.00 0.00 0.00 0.00 0.00 0.00 0.00 0.00 0.00 0.00 0.00 0.00 0.00 0.00 0.00 0.00 0.00 0.00 0.00 0.00 0.00 0.00 0.00 0.00 0.00
0.00 0.00 0.00 0.00 0.00 0.00 0.00 0.00 0.00 0.00 0.00 0.00 0.00 0.00 0.00 0.00 0.00 0.00 0.00 0.00 0.00 0.00 0.00 0.00 0.00 0.00 0.00 0.00 0.00 0.00 0.00 0.00
0.00 0.00 0.00 0.00 0.00 0.00 0.00 0.00 0.00 0.00 0.00 0.00 0.00 0.00 0.00 0.00 0.00 0.00 0.00 0.00 0.00 0.00 0.00 0.00 0.00 0.00 0.00 0.00 0.00 0.00 0.00 0.00
0.00 0.00 0.00 0.00 0.00 0.00 0.00 0.00 0.00 0.00 0.00 0.00 0.00 0.00 0.00 0.00 0.00 0.00 0.00 0.00 0.00 0.00 0.00 0.00 0.00 0.00 0.00 0.00 0.00 0.00 0.00 0.00
0.00 0.00 0.00 0.00 0.00 0.00 0.00 0.00 0.00 0.00 0.00 0.00 0.00 0.00 0.00 0.00 0.00 0.00 0.00 0.00 0.00 0.00 0.00 0.00 0.00 0.00 0.00 0.00 0.00 0.00 0.00 0.00
0.00 0.00 0.00 0.00 0.00 0.00 0.00 0.00 0.00 0.00 0.00 0.00 0.00 0.00 0.00 0.00 0.00 0.00 0.00 0.00 0.00 0.00 0.00 0.00 0.00 0.00 0.00 0.00 0.00 0.00 0.00 0.00
0.00 0.00 0.00 0.00 0.00 0.00 0.00 0.00 0.00 0.00 0.00 0.00 0.00 0.00 0.00 0.00 0.00 0.00 0.00 0.00 0.00 0.00 0.00 0.00 0.00 0.00 0.00 0.00 0.00 0.00 0.00 0.00
0.00 0.00 0.00 0.00 0.00 0.00 0.00 0.00 0.00 0.00 0.00 0.00 0.00 0.00 0.00 0.00 0.00 0.00 0.00 0.00 0.00 0.00 0.00 0.00 0.00 0.00 0.00 0.00 0.00 0.00 0.00 0.00
0.00 0.00 0.00 0.00 0.00 0.00 0.00 0.00 0.00 0.00 0.00 0.00 0.00 0.00 0.00 0.00 0.00 0.00 0.00 0.00 0.00 0.00 0.00 0.00 0.00 0.00 0.00 0.00 0.00 0.00 0.00 0.00
0.00 0.00 0.00 0.00 0.00 0.00 0.00 0.00 0.00 0.00 0.00 0.00 0.00 0.00 0.00 0.00 0.00 0.00 0.00 0.00 0.00 0.00 0.00 0.00 0.00 0.00 0.00 0.00 0.00 0.00 0.00 0.00
0.00 0.00 0.00 0.00 0.00 0.00 0.00 0.00 0.00 0.00 0.00 0.00 0.00 0.00 0.00 0.00 0.00 0.00 0.00 0.00 0.00 0.00 0.00 0.00 0.00 0.00 0.00 0.00 0.00 0.00 0.00 0.00
0.00 0.00 0.00 0.00 0.00 0.00 0.00 0.00 0.00 0.00 0.00 0.00 0.00 0.00 0.00 0.00 0.00 0.00 0.00 0.00 0.00 0.00 0.00 0.00 0.00 0.00 0.00 0.00 0.00 0.00 0.00 0.00
0.00 0.00 0.00 0.00 0.00 0.00 0.00 0.00 0.00 0.00 0.00 0.00 0.00 0.00 0.00 0.00 0.00 0.00 0.00 0.00 0.00 0.00 0.00 0.00 0.00 0.00 0.00 0.00 0.00 0.00 0.00 0.00
0.00 0.00 0.00 0.00 0.00 0.00 0.00 0.00 0.00 0.00 0.00 0.00 0.00 0.00 0.00 0.00 0.00 0.00 0.00 0.00 0.00 0.00 0.00 0.00 0.00 0.00 0.00 0.00 0.00 0.00 0.00 0.00
0.00 0.00 0.00 0.00 0.00 0.00 0.00 0.00 0.00 0.00 0.00 0.00 0.00 0.00 0.00 0.00 0.00 0.00 0.00 0.00 0.00 0.00 0.00 0.00 0.00 0.00 0.00 0.00 0.00 0.00 0.00 0.00
0.00 0.00 0.00 0.00 0.00 0.00 0.00 0.00 0.00 0.00 0.00 0.00 0.00 0.00 0.00 0.00 0.00 0.00 0.00 0.00 0.00 0.00 0.00 0.00 0.00 0.00 0.00 0.00 0.00 0.00 0.00 0.00
0.00 0.00 0.00 0.00 0.00 0.00 0.00 0.00 0.00 0.00 0.00 0.00 0.00 0.00 0.00 0.00 0.00 0.00 0.00 0.00 0.00 0.00 0.00 0.00 0.00 0.00 0.00 0.00 0.00 0.00 0.00 0.00
MSLP
1014.94 1015.49 1015.98 1016.20 1016.41 1016.61 1016.65 1016.77 1016.82 1016.81 1016.71 1016.99 1017.04 1017.02 1017.13 1017.08 1017.28 1017.24 1017.18 1017.07 1016.96 1016.92 1016.92 1016.61 1016.21 1015.92 1015.73 1015.53 1015.27 1015.02 1014.30 1013.12
1014.73 1014.70 1015.00 1015.69 1016.38 1017.01 1017.06 1017.15 1017.04 1016.98 1017.10 1017.24 1017.17 1016.91 1017.04 1017.33 1017.16 1017.55 1017.38 1017.28 1017.10 1016.89 1016.66 1016.38 1016.07 1015.86 1015.67 1015.36 1015.03 1014.62 1013.96 1013.22
1014.97 1014.80 1014.90 1015.53 1015.97 1016.83 1016.99 1017.04 1017.00 1017.03 1017.06 1017.13 1016.82 1016.64 1016.59 1016.67 1017.70 1017.60 1017.45 1017.35 1017.16 1016.95 1016.55 1016.14 1015.56 1015.11 1015.36 1014.91 1014.55 1013.43 1013.07 1013.14
1014.59 1014.46 1014.73 1015.20 1015.13 1015.93 1016.31 1016.44 1016.51 1016.73 1016.89 1016.81 1016.67 1016.89 1017.13 1016.94 1017.27 1017.27 1017.26 1017.12 1016.78 1016.54 1016.31 1015.80 1015.37 1014.99 1014.61 1014.52 1014.14 1014.28 1013.97 1013.25
1013.79 1014.60 1015.01 1014.83 1015.09 1015.08 1015.48 1016.05 1016.48 1017.00 1017.29 1017.09 1017.14 1016.87 1016.97 1016.68 1016.64 1016.61 1016.60 1016.61 1016.41 1016.09 1015.80 1015.79 1015.88 1015.68 1015.42 1015.28 1015.22 1014.73 1014.12 1014.03
1013.57 1014.34 1015.03 1015.10 1014.93 1014.94 1015.72 1016.14 1016.54 1016.91 1017.55 1017.48 1017.19 1016.95 1017.21 1017.17 1017.12 1016.89 1016.74 1016.67 1016.75 1016.39 1016.07 1016.24 1015.96 1015.77 1015.66 1015.60 1015.44 1015.25 1014.86 1014.79
1013.58 1014.19 1014.90 1015.36 1015.30 1015.64 1016.08 1016.53 1016.91 1017.34 1017.54 1018.07 1017.66 1017.40 1017.65 1017.55 1017.50 1017.30 1017.23 1017.03 1016.88 1016.67 1016.44 1016.27 1015.92 1015.76 1015.66 1015.58 1015.48 1015.37 1015.31 1015.08
1014.09 1014.59 1015.23 1015.39 1015.65 1016.07 1016.54 1016.97 1017.37 1017.62 1018.09 1018.41 1018.39 1018.02 1018.17 1017.77 1017.66 1017.53 1017.54 1017.61 1017.43 1017.04 1017.00 1016.51 1016.08 1015.88 1015.53 1015.69 1015.73 1015.39 1015.27 1015.38
1014.33 1014.97 1015.37 1015.72 1015.99 1016.21 1016.71 1017.15 1017.40 1017.74 1018.29 1018.83 1018.90 1018.78 1018.45 1018.30 1018.02 1018.01 1018.08 1017.89 1017.58 1017.16 1016.95 1016.61 1016.21 1015.85 1015.66 1015.41 1015.56 1015.46 1015.48 1015.65
1014.33 1014.87 1015.58 1015.84 1016.10 1016.31 1016.77 1017.44 1017.71 1018.06 1018.38 1018.91 1019.28 1019.30 1019.00 1018.59 1018.42 1018.71 1018.75 1018.16 1017.92 1017.61 1017.32 1017.06 1016.59 1016.28 1015.99 1015.65 1015.57 1015.61 1015.84 1015.80
1014.29 1015.09 1015.62 1016.07 1016.45 1016.78 1017.51 1017.98 1018.03 1018.43 1018.73 1019.05 1019.50 1019.47 1019.39 1018.90 1019.06 1019.27 1018.92 1018.56 1018.42 1018.27 1017.88 1017.55 1017.01 1016.72 1016.25 1015.68 1015.64 1015.59 1015.70 1015.78
1014.38 1015.13 1015.84 1016.26 1016.76 1017.11 1017.52 1018.06 1018.31 1018.61 1019.03 1019.52 1019.70 1019.73 1019.72 1019.28 1019.26 1019.57 1019.12 1018.96 1018.86 1018.88 1018.46 1017.93 1017.43 1017.34 1016.72 1015.60 1015.73 1015.96 1016.09 1016.28
1014.45 1015.22 1015.95 1016.28 1016.44 1016.48 1016.96 1017.37 1018.20 1018.84 1019.40 1019.88 1020.09 1020.23 1020.10 1019.90 1019.59 1019.69 1019.44 1019.42 1019.54 1019.31 1018.90 1018.30 1017.66 1017.83 1016.44 1015.88 1015.37 1016.24 1016.45 1016.51
1014.43 1015.13 1015.84 1015.89 1016.04 1016.29 1016.79 1017.54 1018.27 1018.91 1019.62 1020.17 1020.30 1020.46 1020.52 1020.28 1020.33 1020.11 1020.23 1019.82 1020.03 1019.94 1019.63 1019.04 1018.14 1018.36 1017.97 1016.57 1015.30 1015.57 1016.22 1016.52
1014.36 1014.96 1015.52 1015.76 1016.26 1017.06 1017.64 1018.29 1018.72 1018.86 1019.35 1019.92 1020.63 1020.78 1020.90 1020.86 1020.78 1020.76 1020.55 1020.43 1020.48 1020.54 1020.31 1019.92 1019.25 1018.77 1018.91 1018.59 1017.37 1016.48 1016.70 1016.46
1014.17 1014.80 1015.31 1015.95 1016.56 1016.74 1017.22 1017.16 1017.39 1018.42 1019.21 1020.08 1020.71 1021.08 1021.27 1021.23 1021.28 1021.27 1021.22 1021.12 1021.22 1021.05 1020.95 1020.66 1020.30 1019.71 1019.45 1019.63 1019.53 1019.45 1018.56 1017.02
1014.36 1014.96 1015.38 1015.95 1016.43 1016.63 1017.17 1017.38 1018.19 1018.84 1019.56 1020.23 1020.84 1021.33 1021.56 1021.66 1021.68 1021.70 1021.64 1021.57 1021.59 1021.69 1021.58 1021.35 1020.98 1020.66 1020.67 1020.66 1020.31 1019.66 1019.93 1019.37
1014.65 1015.14 1015.62 1016.21 1016.54 1016.93 1017.24 1017.76 1018.22 1018.85 1019.54 1019.95 1020.54 1021.14 1021.45 1021.90 1021.90 1021.92 1022.11 1022.02 1022.16 1021.98 1021.96 1022.07 1021.84 1021.53 1021.37 1021.51 1021.51 1021.52 1021.67 1021.36
1014.80 1015.01 1015.67 1016.45 1016.96 1017.36 1017.76 1018.27 1018.69 1019.07 1019.69 1019.97 1020.56 1021.07 1021.52 1022.14 1022.02 1022.22 1022.44 1022.66 1022.67 1022.42 1022.27 1022.25 1022.33 1022.39 1022.52 1022.08 1022.25 1022.64 1022.95 1022.61
1014.82 1015.24 1015.84 1016.58 1017.15 1017.69 1018.21 1018.71 1019.01 1019.44 1019.95 1020.41 1020.92 1021.41 1021.92 1022.39 1022.42 1022.57 1022.99 1022.98 1022.88 1022.54 1022.55 1022.77 1023.05 1023.11 1023.15 1022.76 1022.52 1022.92 1022.99 1022.85
Thickness
5688 5683 5678 5674 5671 5668 5667 5665 5663 5662 5662 5660 5658 5658 5657 5657 5655 5654 5654 5654 5654 5654 5653 5656 5659 5662 5663 5665 5667 5668 5670 5679
5684 5683 5679 5672 5666 5660 5660 5659 5658 5658 5656 5654 5653 5654 5653 5651 5650 5648 5649 5649 5649 5650 5651 5653 5655 5656 5657 5660 5663 5666 5669 5673
5678 5677 5675 5668 5664 5656 5655 5654 5655 5654 5652 5651 5652 5651 5651 5650 5644 5643 5643 5643 5644 5644 5647 5649 5653 5655 5653 5656 5660 5667 5669 5668
5675 5674 5671 5665 5665 5657 5654 5652 5651 5649 5647 5647 5647 5646 5643 5644 5641 5641 5639 5639 5641 5642 5642 5645 5647 5649 5651 5651 5653 5651 5654 5659
5677 5668 5663 5663 5661 5659 5655 5649 5646 5641 5639 5639 5638 5639 5638 5639 5638 5637 5636 5635 5635 5637 5638 5637 5636 5636 5637 5638 5638 5641 5644 5643
5674 5665 5657 5656 5656 5655 5647 5643 5639 5635 5630 5630 5631 5631 5629 5628 5627 5627 5627 5626 5624 5626 5627 5625 5627 5628 5628 5627 5627 5628 5630 5629
5667 5662 5653 5648 5647 5643 5638 5633 5629 5625 5623 5619 5620 5620 5617 5616 5615 5615 5614 5614 5614 5614 5615 5616 5617 5618 5618 5618 5618 5617 5617 5617
5656 5651 5644 5641 5638 5634 5629 5625 5620 5617 5612 5609 5607 5608 5605 5606 5605 5604 5602 5600 5600 5601 5600 5603 5605 5605 5608 5606 5605 5607 5607 5606
5646 5640 5637 5633 5630 5627 5621 5616 5612 5608 5602 5597 5595 5594 5595 5593 5593 5591 5589 5588 5589 5591 5591 5592 5594 5595 5596 5597 5595 5595 5594 5592
5638 5633 5626 5623 5620 5617 5611 5604 5600 5596 5592 5587 5584 5582 5582 5582 5580 5575 5573 5576 5576 5577 5577 5577 5580 5580 5581 5583 5582 5581 5578 5578
5629 5622 5616 5611 5607 5603 5596 5591 5589 5584 5581 5577 5571 5569 5568 5568 5564 5560 5561 5561 5560 5560 5561 5561 5563 5564 5566 5570 5569 5568 5565 5564
5619 5612 5604 5599 5594 5590 5585 5580 5577 5573 5568 5563 5559 5557 5554 5554 5551 5547 5547 5547 5545 5543 5544 5546 5548 5546 5548 5556 5554 5550 5546 5544
5608 5600 5593 5590 5587 5586 5581 5576 5568 5561 5554 5549 5545 5542 5539 5538 5537 5534 5533 5531 5528 5527 5528 5530 5533 5527 5537 5537 5539 5532 5527 5524
5597 5590 5584 5583 5580 5577 5571 5563 5555 5548 5541 5535 5531 5527 5524 5522 5520 5518 5515 5517 5512 5509 5509 5509 5514 5509 5508 5517 5523 5516 5513 5506
5586 5581 5575 5573 5567 5559 5552 5545 5540 5538 5532 5525 5517 5513 5510 5508 5506 5503 5502 5499 5496 5492 5490 5490 5491 5491 5486 5485 5494 5497 5487 5490
5579 5572 5567 5560 5553 5550 5543 5545 5542 5531 5522 5513 5505 5500 5496 5495 5491 5488 5486 5483 5479 5476 5472 5470 5469 5471 5470 5464 5460 5456 5460 5471
5566 5559 5555 5548 5543 5540 5534 5531 5522 5515 5508 5500 5493 5487 5484 5480 5477 5474 5471 5467 5463 5458 5456 5454 5454 5454 5449 5443 5442 5444 5438 5439
5552 5545 5541 5534 5530 5525 5522 5516 5511 5505 5497 5493 5486 5479 5473 5467 5464 5460 5455 5453 5448 5447 5444 5440 5438 5434 5431 5424 5419 5414 5408 5408
5540 5537 5530 5521 5515 5510 5505 5500 5496 5493 5486 5482 5475 5469 5463 5454 5452 5448 5444 5439 5437 5436 5434 5430 5425 5418 5412 5411 5403 5395 5388 5386
5529 5524 5518 5510 5504 5499 5494 5489 5485 5480 5474 5469 5463 5456 5449 5443 5440 5438 5432 5430 5428 5427 5424 5418 5411 5405 5400 5397 5395 5387 5381 5378